Date,TemperatureHighF,TemperatureAvgF,TemperatureLowF,DewpointHighF,DewpointAvgF,DewpointLowF,HumidityHigh,HumidityAvg,HumidityLow,PressureMaxIn,PressureMinIn,WindSpeedMaxMPH,WindSpeedAvgMPH,GustSpeedMaxMPH,PrecipitationSumIn
2013-6-1,88.1,75.7,62.4,71.9,64.8,60.3,94,71,47,30.14,30.02,8,1,15,0.00
2013-6-2,76.8,72.2,66.8,70.5,66.8,62.7,98,84,66,30.04,29.94,6,0,10,1.25
2013-6-3,83.0,71.4,64.2,68.6,64.5,59.1,99,81,53,30.03,29.90,7,0,14,0.02
2013-6-4,81.8,68.2,55.7,65.8,60.1,54.3,97,77,46,30.16,30.03,4,0,10,0.00
2013-6-5,73.2,65.9,58.8,65.7,61.6,56.1,97,87,72,30.19,30.08,3,0,6,0.01
2013-6-6,65.4,63.1,60.5,64.5,62.4,59.9,99,98,96,30.08,29.86,2,0,4,2.20
2013-6-7,74.7,67.8,63.9,70.6,65.8,59.9,100,94,78,29.88,29.67,5,0,9,0.62
2013-6-8,87.2,70.6,60.1,67.7,62.5,57.8,98,78,43,30.14,29.86,4,0,6,0.13
2013-6-9,86.5,73.3,64.5,73.1,67.5,63.1,98,84,59,30.21,30.08,6,0,13,0.29
2013-6-10,82.1,71.2,64.0,72.1,68.5,63.1,99,92,69,30.12,29.88,8,0,15,0.39
2013-6-11,83.0,72.7,63.2,67.1,64.1,62.1,99,76,55,30.00,29.91,9,2,16,0.15
2013-6-12,92.0,78.2,63.7,74.2,68.8,62.3,96,75,52,30.01,29.91,6,1,12,0.00
2013-6-13,89.7,81.0,72.6,72.3,70.1,68.2,90,70,51,29.91,29.65,14,3,54,0.00
2013-6-16,84.8,72.6,58.3,71.1,64.0,56.9,97,76,51,30.11,30.02,5,1,11,0.59
2013-6-17,88.1,74.0,66.7,73.9,68.6,58.3,99,85,57,30.08,29.96,6,0,11,0.05
2013-6-18,76.0,69.3,63.6,71.1,66.9,61.8,99,92,74,30.00,29.87,3,0,6,0.36
2013-6-19,67.9,63.3,59.5,66.1,62.3,58.9,99,97,90,30.19,29.96,2,0,4,0.12
2013-6-20,81.8,70.8,63.7,70.2,66.2,63.1,99,87,65,30.30,30.19,4,0,7,0.00
2013-6-21,87.6,73.1,60.6,70.0,64.8,59.4,98,77,52,30.33,30.25,4,0,6,0.00
2013-6-22,88.4,72.8,58.2,69.6,63.5,55.6,92,75,46,30.32,30.18,3,0,5,0.00
2013-6-23,92.5,77.2,65.4,72.7,68.4,64.5,98,77,43,30.26,30.15,5,0,9,0.00
2013-6-24,87.5,74.4,66.1,76.6,70.1,65.2,98,87,61,30.24,30.13,4,0,9,0.41
2013-6-25,90.0,76.2,65.1,75.1,69.3,64.8,100,81,53,30.16,30.03,5,0,9,0.01
2013-6-26,94.3,73.1,65.5,74.5,68.5,64.6,99,87,49,30.05,29.94,15,0,22,0.23
2013-6-27,84.5,73.2,66.5,73.7,68.6,65.6,100,87,62,29.96,29.76,8,1,14,0.03
2013-6-28,89.8,79.2,68.6,72.5,68.0,63.6,95,70,45,29.79,29.59,10,2,17,0.00
2013-6-29,88.3,74.8,64.5,71.3,66.7,62.3,98,77,49,29.77,29.64,6,1,12,0.23
2013-6-30,87.9,73.6,65.8,74.8,69.5,65.3,99,89,61,29.90,29.75,4,0,9,0.39